www.pogodaiklimat.ru

Погода и климат >> Архив погоды >> Франция >> Лион


АРХИВ ПОГОДЫ в Лионе

Время (UTC), дата Ветер
(напр.,м/с)
 
Видим.   Явления Облачность Т
(С)
Тd
(С)
f
(%)
Тe
(С)
Тes
(С)
Комфортность P
(гПа)
Po
(гПа)
Тmin
(С)
Tmax
(С)
R
(мм)
R24
(мм)
S
(см)
10 13.08 С 3 50 км 9/3 750 м
[Cu hum Ci fib]
+18.5 +12.0 66 +19 +26 очень
холодно
1020.9 992.8
11 13.08 С 4 50 км 8/3 1080 м
[Cu hum Ci fib]
+19.7 +10.4 55 +21 +28 комфорт 1020.2 992.3
12 13.08 С 7
{12}
60 км 5/3 1200 м
[Cu hum Ci fib]
+20.4 +9.3 49 +21 +24 комфорт 1019.9 992.0
13 13.08 СЗ 4-6
{6}
60 км 5/5 1380 м
[Cu hum]
+21.3 +10.5 50 +23 +28 комфорт 1019.4 991.6
14 13.08 С 4 60 км 6/4 1500 м
[Cu hum Ci fib]
+21.5 +10.0 48 +23 +28 комфорт 1019.0 991.3
15 13.08 С 7
{12}
60 км 5/1 1500 м
[Cu hum Ci fib]
+22.1 +9.3 44 +24 +25 комфорт 1018.8 991.1
16 13.08 С 7
{12}
60 км 4/1 1500 м
[Cu hum Ci fib]
+21.6 +8.1 42 +23 +24 комфорт 1018.7 991.0
17 13.08 С 3 60 км 1/1 1500 м
[Cu hum Ci fib]
+21.2 +8.8 45 +22 +24 комфорт 1018.7 990.9
18 13.08 С 5
{9}
60 км 1/1 1500 м
[Sc]
+20.5 +9.4 49 +22 +22 комфорт 1018.9 991.1 +14.3 +22.2
19 13.08 С 2-3
{4}
60 км 1/1 2000 м
[Sc]
+18.6 +10.2 58 +20 +20 прохладно 1019.3 991.3
20 13.08 С 1-2
{3}
60 км ясно +17.5 +10.4 63 +19 +19 прохладно 1019.8 991.7
21 13.08 С 4-2
{5}
60 км ясно +16.1 +11.0 72 +15 +15 холодно 1020.1 991.8
22 13.08 СЗ 2-3
{3}
60 км ясно +15.3 +11.3 77 +15 +15 прохладно 1020.4 992.0
23 13.08 С 2-3
{3}
60 км ясно +14.5 +10.9 79 +14 +14 холодно 1020.5 992.1
00 14.08 С 3-2
{5}
60 км ясно +14.6 +10.0 74 +14 +14 прохладно 1020.4 992.0
01 14.08 Ю 1-1
{2}
60 км ясно +14.0 +9.2 73 +15 +15 прохладно 1020.6 992.1
02 14.08 С 1-1
{2}
60 км 4/0
[]
+13.0 +9.3 78 +14 +14 прохладно 1020.4 991.8
03 14.08 ЮЗ 1-1
{2}
60 км 5/0
[Ci]
+12.4 +10.1 86 +13 +13 холодно 1020.0 991.4
04 14.08 СЗ 1-1
{3}
60 км 9/0
[]
+12.4 +9.9 85 +13 +13 прохладно 1019.9 991.3
05 14.08 штиль 0-1
{1}
50 км 8/0
[]
+13.0 +9.8 81 +13 +13 прохладно 1019.9 991.3
06 14.08 С 2
{3}
50 км 9/0
[Ci sp]
+13.5 +10.7 83 +13 +14 прохладно 1020.2 991.7 +12.2 +20.4
07 14.08 С 1-2
{2}
50 км 4/0
[]
+15.1 +9.5 69 +16 +19 очень
холодно
1020.5 992.1
08 14.08 С 2-3
{3}
50 км 1/0
[]
+16.4 +10.7 69 +17 +24 холодно 1020.5 992.2
09 14.08 С 4-3
{6}
40 км н/о +18.8 +10.1 57 +19 +19 прохладно 1020.1 992.1
10 14.08 С 3-5
{5}
50 км 1/0
[]
+20.9 +9.5 48 +23 +33 комфорт 1019.3 991.5
11 14.08 С 3-6
{6}
50 км 1/0
[]
+21.8 +8.0 41 +23 +36 комфорт 1018.7 991.0
12 14.08 С 4-4
{10}
50 км 1/0
[Ci sp]
+22.6 +9.0 42 +24 +34 комфорт 1018.0 990.4
13 14.08 С 3-5
{5}
60 км 1/0
[]
+23.6 +8.4 38 +24 +37 комфорт 1017.6 990.1
14 14.08 С 2-5
{5}
60 км ясно +23.6 +8.1 37 +24 +37 комфорт 1017.1 989.6
15 14.08 С 4-4
{13}
60 км н/о +23.9 +8.3 37 +24 +24 комфорт 1016.8 989.3
16 14.08 С 3-4
{5}
60 км ясно +24.2 +10.1 41 +25 +29 комфорт 1016.5 989.1
17 14.08 СЗ 2-3
{5}
50 км н/о +23.8 +9.4 40 +25 +25 комфорт 1016.4 988.9
18 14.08 СВ 3
{6}
60 км ясно +23.2 +10.3 44 +25 +25 комфорт 1016.2 988.7 +13.5 +24.6
19 14.08 СВ 1-3
{3}
60 км ясно +22.1 +10.6 48 +24 +24 комфорт 1016.5 988.9
20 14.08 В 1-1
{2}
60 км ясно +21.0 +10.8 52 +24 +24 комфорт 1017.1 989.4
21 14.08 Ю 2-1
{4}
60 км ясно +20.0 +11.5 58 +22 +22 комфорт 1017.2 989.4
22 14.08 ЮВ 1-2
{2}
60 км ясно +18.9 +11.5 62 +21 +21 комфорт 1017.3 989.4
23 14.08 ЮВ 1-2
{2}
60 км 6/0
[]
+18.5 +11.6 64 +20 +20 тепло 1017.7 989.7
00 15.08 ЮВ 3-2
{4}
60 км 6/0
[Ci sp]
+17.8 +11.6 67 +18 +18 по сезону 1017.5 989.5
01 15.08 ЮВ 1-1
{2}
45 км 9/9
[]
+17.6 +11.6 68 +19 +19 тепло 1017.5 989.4
02 15.08 Ю 1-1
{2}
60 км 9/0
[Ac und]
+16.6 +11.5 72 +18 +18 по сезону 1017.3 989.2
03 15.08 ЮВ 3
{5}
60 км 9/0 2000 м
[Ac und Ci fib]
+16.7 +11.4 71 +16 +16 по сезону 1017.1 989.0
04 15.08 ЮВ 2 60 км 9/0
[Ac und Ci fib]
+16.2 +11.1 72 +16 +16 по сезону 1016.9 988.7
05 15.08 ЮВ 4
{6}
60 км 9/0
[Ac und Ci fib]
+16.5 +11.0 70 +16 +16 по сезону 1017.2 989.0
06 15.08 ЮВ 4
{6}
60 км 9/0 2000 м
[Ac As]
+17.2 +11.7 70 +17 +17 по сезону 1017.3 989.2 +16.0 +23.2
07 15.08 ЮВ 3 60 км 9/0
[Ac As Ci fib]
+18.5 +11.8 65 +19 +21 холодно 1017.3 989.3
08 15.08 Ю 1-1
{3}
55 км н/о +20.2 +12.4 61 +24 +24 комфорт 1017.3 989.5
09 15.08 З 2-2
{4}
60 км 9/9 1500 м
[Sc]
+22.0 +12.5 55 +25 +26 комфорт 1017.4 989.8
10 15.08 З 2 60 км 9/9 1380 м
[Sc]
+21.3 +13.2 60 +24 +25 комфорт 1018.0 990.3
11 15.08 СЗ 2 60 км 9/9 1380 м
[Sc]
+22.3 +13.4 57 +25 +27 комфорт 1018.0 990.4
12 15.08 С 5
{8}
60 км 6/6 1050 м
[Cu Sc]
+22.7 +14.3 59 +26 +30 жарко 1018.0 990.4
13 15.08 С 3 60 км 6/6 1050 м
[Cu Sc]
+23.0 +14.3 58 +27 +32 душно 1018.0 990.5
14 15.08 СЗ 3 60 км 6/6 1300 м
[Cu Sc]
+23.9 +13.4 52 +26 +30 жарко 1017.7 990.2
15 15.08 С 4
{9}
60 км 4/4 1500 м
[Cu Sc]
+24.0 +12.3 48 +26 +29 жарко 1017.6 990.1
16 15.08 СЗ 3 60 км 3/3 1500 м
[Cu Sc]
+24.5 +10.4 41 +26 +28 жарко 1017.8 990.4
17 15.08 С 4 60 км 1/1 1500 м
[Cu Sc]
+23.8 +10.5 43 +25 +26 комфорт 1018.3 990.8
18 15.08 С 5
{10}
60 км 3/3 2000 м
[Sc diur, vesp]
+22.3 +10.4 47 +24 +24 комфорт 1019.0 991.3 +17.2 +25.0
19 15.08 С 1-2
{3}
60 км 3/3
[Sc diur, vesp]
+20.5 +11.4 56 +23 +23 комфорт 1019.6 991.8
20 15.08 С 2-2
{2}
60 км 1/1
[Sc diur, vesp]
+19.9 +11.6 59 +22 +22 комфорт 1020.2 992.3
21 15.08 С 3-2
{5}
60 км 1/1 2000 м
[Sc]
+18.4 +11.7 65 +19 +19 прохладно 1020.7 992.6
22 15.08 З 1-2
{2}
60 км 1/1
[Sc]
+17.1 +11.8 71 +18 +18 по сезону 1021.2 993.0
23 15.08 СЗ 1-1
{2}
60 км 1/1
[Sc]
+16.5 +11.4 72 +18 +18 по сезону 1021.1 992.8
00 16.08 СЗ 2-1
{3}
50 км 4/0
[Ci sp]
+15.8 +11.6 76 +16 +16 прохладно 1021.0 992.7
01 16.08 Ю 1-1
{2}
50 км 1/0
[]
+14.8 +11.4 80 +16 +16 по сезону 1021.2 992.8
02 16.08 ЮЗ 1-1
{2}
50 км ясно +15.4 +11.4 77 +17 +17 по сезону 1020.9 992.5
03 16.08 З 2-1
{2}
50 км ясно +14.1 +11.3 83 +14 +14 прохладно 1020.6 992.1
04 16.08 СЗ 1-2
{3}
50 км ясно +13.4 +11.3 87 +14 +14 прохладно 1020.3 991.8
05 16.08 С 1-1
{2}
50 км 1/0
[]
+13.3 +11.4 88 +14 +14 прохладно 1020.2 991.7
06 16.08 СЗ 1
{2}
50 км 4/0
[Ci fib]
+15.0 +11.9 82 +16 +17 по сезону 1020.6 992.2 +13.0 +22.3
07 16.08 С 2-2
{3}
50 км 5/0
[]
+17.4 +11.9 70 +18 +21 холодно 1019.9 991.8
08 16.08 С 1-3
{3}
50 км 8/0
[]
+18.7 +12.9 69 +21 +25 комфорт 1019.7 991.7
09 16.08 С 2-3
{6}
50 км 9/0
[Ci fib]
+20.0 +12.2 61 +22 +31 комфорт 1019.1 991.2
10 16.08 СЗ 1-3
{3}
50 км 9/0
[]
+21.8 +12.1 54 +24 +33 комфорт 1018.5 990.8
11 16.08 З 1 40 км 9/1 1200 м
[Cu hum Ci sp]
+22.7 +12.0 51 +25 +39 комфорт 1018.0 990.4
12 16.08 СЗ 3-4
{9}
40 км 9/0
[Ci sp]
+23.5 +11.9 48 +25 +36 комфорт 1017.7 990.2
13 16.08 С 1-2
{4}
40 км 9/0
[]
+23.8 +11.1 45 +25 +34 комфорт 1017.2 989.7
14 16.08 СВ 2-3
{4}
40 км 9/0
[]
+24.6 +11.9 45 +26 +33 жарко 1016.8 989.4
15 16.08 С 2-2
{7}
40 км 8/0
[Ci fib]
+24.8 +11.0 42 +26 +33 жарко 1016.3 988.9
16 16.08 С 1-2
{2}
40 км 8/0
[]
+25.3 +10.3 39 +26 +30 жарко 1015.4 988.1
17 16.08 В 1-2
{2}
40 км 8/0
[]
+25.1 +10.9 41 +26 +27 жарко 1015.0 987.7
18 16.08 В 1
{4}
70 км 9/0
[Ac trans Ci sp]
+24.6 +10.1 40 +26 +26 жарко 1015.0 987.6 +15.1 +25.7
19 16.08 В 1 >70 км 8/0
[Ac trans Ci sp]
+22.9 +12.2 51 +26 +26 жарко 1015.2 987.7
20 16.08 ЮВ 1 >70 км 8/0
[Ac trans Ci sp]
+21.5 +12.3 56 +24 +24 комфорт 1015.5 987.9
21 16.08 ЮВ 5-3
{9}
>70 км 6/0
[Ci fib]
+21.1 +12.8 59 +23 +23 комфорт 1015.5 987.8
22 16.08 ЮВ 3 >70 км 8/0
[Ac trans Ci sp]
+20.1 +12.6 62 +22 +22 комфорт 1015.4 987.6
23 16.08 ЮВ 2 >70 км 8/0
[Ac trans Ci sp]
+19.4 +12.4 64 +21 +21 комфорт 1015.4 987.6
00 17.08 ЮВ 1-2
{4}
>70 км 6/0
[Ci sp]
+18.6 +12.6 68 +20 +20 тепло 1015.3 987.4
01 17.08 штиль 0-1
{2}
>70 км 8/0
[]
+18.2 +12.6 70 +18 +18 по сезону 1015.3 987.4
02 17.08 ЮВ 2-3
{3}
>70 км 8/0
[]
+17.9 +12.3 70 +18 +18 по сезону 1015.2 987.2
03 17.08 ЮВ 4-3
{5}
60 км 5/0
[Ci sp]
+16.4 +12.6 78 +16 +16 по сезону 1015.3 987.2
04 17.08 ЮВ 1 60 км 8/0
[Ac trans Ci sp]
+16.8 +12.3 75 +18 +18 тепло 1015.3 987.2
05 17.08 ЮВ 1 60 км осадки на расстоянии 9/0
[Ac As Ci sp]
+16.6 +12.5 77 +18 +18 тепло 1015.5 987.4
06 17.08 ЮВ 2
{5}
>70 км 9/0
[Ac As]
+16.9 +12.4 75 +17 +18 по сезону 1015.5 987.4 +15.9 +24.6
07 17.08 С 1 н/о 8/0
[Ac As Ci fib]
+18.6 +12.6 68 +21 +24 комфорт 1015.7 987.8
08 17.08 Ю 2 н/о 8/0
[Ac trans Ci fib]
+22.1 +12.6 55 +25 +30 комфорт 1015.4 987.8
09 17.08 Ю 3
{7}
>70 км 9/0
[Ac trans Ci]
+24.8 +11.0 42 +26 +32 жарко 1014.9 987.6
10 17.08 Ю 3 н/о 9/0
[Ac trans Ci sp]
+26.6 +10.7 37 +27 +36 жарко 1014.5 987.3
11 17.08 Ю 3 н/о 6/0
[Ac trans Ci sp]
+28.0 +10.7 34 +29 +39 жарко 1014.0 987.0
12 17.08 Ю 7
{11}
>70 км 5/0
[Ac trans Ci sp]
+29.7 +10.8 31 +30 +34 жарко 1013.2 986.4
13 17.08 Ю 3 н/о 4/0
[Ac trans Ci sp]
+31.3 +10.6 28 +31 +40 жарко 1012.3 985.6
14 17.08 Ю 3 н/о 6/0
[Ac trans Ci fib]
+32.6 +8.8 23 +31 +39 жарко 1011.7 985.1
15 17.08 ЮЗ 6
{10}
>70 км 4/0
[Ac trans Ci fib]
+33.0 +8.4 22 +32 +34 жарко 1011.2 984.7
16 17.08 Ю 4 н/о 5/0
[Ac trans Ci sp]
+32.8 +8.9 23 +32 +34 жарко 1010.9 984.4
17 17.08 Ю 3 н/о 6/0
[Ac trans Ci sp]
+32.7 +10.7 26 +32 +33 жарко 1010.3 983.8
18 17.08 Ю 6
{10}
>70 км 5/0
[Ac trans Ci sp]
+31.2 +13.0 33 +32 +32 жарко 1010.4 983.8 +16.9 +33.1
19 17.08 Ю 4 50 км 5/0
[Ac trans Ci sp]
+29.7 +13.5 37 +31 +31 жарко 1010.7 983.9
20 17.08 Ю 4-5
{6}
50 км 6/0
[]
+28.3 +14.5 43 +31 +31 душно 1011.2 984.3
21 17.08 Ю 7-6
{12}
50 км 6/0
[Ac trans]
+27.5 +13.8 43 +30 +30 жарко 1011.6 984.6
22 17.08 Ю 4-7
{7}
50 км 8/0
[Ac trans]
+26.7 +12.7 42 +28 +28 жарко 1011.9 984.8
23 17.08 Ю 4-5
{7}
50 км 4/0
[Ac trans]
+25.3 +12.8 46 +27 +27 жарко 1012.2 985.0
00 18.08 Ю 7-6
{12}
45 км н/о +24.8 +13.0 48 +27 +27 жарко 1012.1 984.9
01 18.08 Ю 4-7
{7}
40 км н/о +24.3 +15.2 57 +27 +27 жарко 1011.7 984.5
02 18.08 Ю 4-7
{8}
40 км 1/0
[Ac trans]
+23.9 +15.9 61 +27 +27 жарко 1011.3 984.0
03 18.08 ЮВ 3-3
{9}
40 км ясно +23.0 +15.1 61 +27 +27 душно 1011.6 984.2
04 18.08 ЮВ 2-3
{5}
40 км ясно +22.5 +15.1 63 +26 +26 жарко 1011.2 983.8
05 18.08 ЮВ 3-5
{5}
40 км ясно +22.3 +15.9 67 +26 +26 жарко 1010.9 983.5
06 18.08 ЮВ 4
{9}
40 км ясно +22.7 +16.0 66 +27 +28 душно 1010.9 983.5 +22.1 +31.2
07 18.08 Ю 2-5
{6}
30 км н/о +23.6 +15.6 61 +27 +27 жарко 1010.8 983.5
08 18.08 Ю 4-7
{7}
40 км ясно +25.7 +14.8 51 +28 +33 жарко 1010.4 983.3
09 18.08 Ю 12-20
{20}
40 км ясно +27.1 +14.5 46 +30 +30 душно 1009.3 982.4
10 18.08 Ю 8-12
{13}
40 км 3/0
[Ac cast]
+27.7 +15.7 48 +31 +33 душно 1009.0 982.1
11 18.08 ЮЗ 8-11
{14}
30 км 5/0
[Ac cast]
+28.6 +16.8 49 +32 +34 душно 1010.2 983.4
12 18.08 Ю 11-19
{24}
30 км 3/0
[Ac cast]
+29.6 +17.8 49 +34 +34 очень
душно
1010.2 983.5
13 18.08 Ю 6-8
{9}
30 км 1/0
[Ac cast]
+29.9 +17.4 47 +34 +40 очень
душно
1010.0 983.3
14 18.08 Ю 6-8
{8}
13 км н/о +30.8 +17.5 45 +35 +35 очень
душно
1009.6 983.0
15 18.08 Ю 10
{15}
40 км 3/1 1500 м
[Cb cap Ac cast]
+30.9 +17.2 44 +35 +35 очень
душно
1009.6 983.0
16 18.08 Ю 5 40 км 4/3 1500 м
[Cb cap Ac cast]
+30.7 +17.0 44 +34 +36 очень
душно
1009.2 982.6
17 18.08 Ю 5 30 км 6/1 1500 м
[Cb cap Ac cast Ci ing]
+29.9 +16.3 44 +33 +34 душно 1009.1 982.4
18 18.08 Ю 7
{14}
30 км 9/1 1500 м
[Cb cap Ac cast Ci ing]
+29.0 +15.5 44 +32 +32 душно 1009.2 982.4 +22.6 +31.3
19 18.08 ЮЗ 4 30 км слаб. ливневой дождь 9/3 1500 м
[Cb cap Ac cast]
+27.3 +16.6 52 +31 +31 душно 1010.4 983.5 0.0
20 18.08 С 3 10 км гроза без осадков {ливн. осадки} 9/3 1500 м
[Cb cap Ac cast]
+22.4 +18.6 79 +28 +28 душно 1013.4 986.0 0.8
21 18.08 ЮЗ 2
{6}
10 км гроза, ливневой дождь 9/3 1500 м
[Cb cap Ac cast]
+21.4 +19.3 88 +26 +26 душно 1015.1 987.6 1
22 18.08 В 1 15 км слаб. ливневой дождь, в посл. час гроза 10/5 750 м
[Cb cap Ac cast]
+20.5 +19.2 92 +26 +26 душно 1015.1 987.5 0.8
23 18.08 В 1 25 км в посл. час ливневой дождь 8/1 1080 м
[Sc Ac cuf]
+20.5 +18.8 90 +26 +26 душно 1014.6 987.0 0.0
00 19.08 СЗ 1
{2}
25 км гроза без осадков {ливн. осадки} 8/3 1080 м
[Cb cap Ac cuf]
+20.1 +19.3 95 +25 +25 комфорт 1015.8 988.1 0.8
01 19.08 В 2 4000 м гроза, ливневой дождь 10/9 150 м
[Cb cap Ac cuf]
+19.9 +19.4 97 +24 +24 комфорт 1015.3 987.6 3
02 19.08 СВ 2 10 км в посл. час гроза {ливн. осадки} 10/8 210 м
[Cb cap Ac cuf]
+19.8 +19.3 97 +24 +24 комфорт 1015.9 988.2 0.0
03 19.08 С 2
{6}
10 км слаб. ливневой дождь {гроза} 10/5 180 м
[Cu med, cong Ac cuf]
+19.1 +17.9 93 +21 +21 комфорт 1016.5 988.7 3
04 19.08 З 1 10 км ливневой дождь 10/8 240 м
[Cu med, cong Ac cuf]
+18.7 +17.9 95 +21 +21 комфорт 1017.3 989.4 2
05 19.08 СВ 1 28 км дождь {ливн. осадки} 10/8 300 м
[]
+18.6 +17.9 96 +21 +21 комфорт 1016.9 989.0 0.4
06 19.08 СВ 4
{7}
20 км в посл. час ливневой дождь {гроза} 9/9 180 м
[Cu med, cong Ac cuf]
+18.7 +17.5 93 +20 +20 тепло 1017.5 989.6 +18.5 +29.0 2
07 19.08 С 3 30 км 9/1 270 м
[Cu Sc Ac As]
+18.6 +16.9 90 +20 +21 прохладно 1017.3 989.4
08 19.08 С 3 20 км осадки на расстоянии 10/9 210 м
[Cu Sc]
+18.3 +16.5 89 +19 +19 прохладно 1017.8 989.9
09 19.08 С 5
{7}
15 км в посл. час ливневой дождь 10/10 300 м
[Cu Sc]
+17.9 +16.4 91 +18 +18 прохладно 1018.7 990.7 0.0
10 19.08 С 3 30 км 10/10 300 м
[Cu Sc]
+18.1 +16.1 88 +19 +19 очень
холодно
1019.1 991.1
11 19.08 С 3 30 км 10/10 270 м
[Cu Sc]
+17.4 +14.7 84 +18 +18 очень
холодно
1019.6 991.5
12 19.08 С 6
{8}
30 км {ливн. осадки, дождь} 10/10 400 м
[Cu Sc]
+17.5 +14.4 82 +17 +17 очень
холодно
1019.8 991.7
13 19.08 С 3 30 км 10/10 420 м
[Cu Sc]
+17.8 +14.9 83 +18 +18 очень
холодно
1020.2 992.1
14 19.08 С 3-3
{4}
40 км 10/10 480 м
[]
+17.7 +14.4 81 +18 +18 очень
холодно
1020.1 992.0
15 19.08 С 3
{6}
30 км в посл. час гроза {ливн. осадки} 10/10 420 м
[Cb calv]
+17.3 +15.1 87 +17 +17 очень
холодно
1020.4 992.3 3
16 19.08 СЗ 1 30 км осадки на расстоянии 10/10 300 м
[Cu Sc]
+17.9 +14.6 81 +19 +19 очень
холодно
1020.2 992.1
17 19.08 З 1 20 км осадки на расстоянии 10/10 1170 м
[Cu Sc]
+17.9 +14.4 80 +20 +20 холодно 1020.1 992.0
18 19.08 З 1
{3}
20 км {гроза, ливн. осадки} 10/10 1380 м
[Cb calv]
+17.9 +14.4 80 +19 +19 холодно 1020.5 992.4 +17.1 +18.8
19 19.08 З 1-1
{1}
20 км 10/10 1440 м
[Sc]
+17.8 +13.9 78 +19 +19 прохладно 1020.5 992.4
20 19.08 ЮЗ 1-1
{2}
20 км 10/10 1500 м
[Sc]
+17.8 +14.9 83 +19 +19 прохладно 1020.9 992.8
21 19.08 З 1
{6}
50 км 10/9 1500 м
[Cb cap]
+17.7 +15.1 85 +19 +19 прохладно 1021.2 993.1
22 19.08 СВ 1 10 км слаб. ливневой дождь, в посл. час гроза 10/6 800 м
[Cb cap Ac cast]
+17.5 +15.3 87 +19 +19 тепло 1020.9 992.8 0.2
23 19.08 С 1 10 км в посл. час гроза {ливн. осадки} 10/9 800 м
[Cb cap]
+17.1 +14.9 87 +19 +19 тепло 1021.3 993.1 0.0
00 20.08 В 2
{3}
3000 м слаб. ливневой дождь {гроза} 10/9 1500 м
[Cb cap]
+17.0 +14.6 86 +18 +18 по сезону 1020.6 992.4 0.2
01 20.08 З 1 30 км в посл. час ливневой дождь 10/6 1500 м
[Cu Sc Ac As]
+16.8 +14.1 84 +18 +18 по сезону 1020.5 992.3 0.0
02 20.08 Ю 1-2
{2}
30 км 10/10 1500 м
[Sc]
+16.8 +14.6 87 +18 +18 по сезону 1020.8 992.6
03 20.08 ЮЗ 2
{3}
15 км слаб. дождь 10/3 1500 м
[Sc Ac As]
+16.8 +15.0 89 +17 +17 по сезону 1020.4 992.2 0.2
04 20.08 СЗ 1 15 км слаб. дождь 9/9 1500 м
[]
+16.5 +15.9 96 +17 +17 по сезону 1020.0 991.8 0.6
05 20.08 З 1 9000 м слаб. дождь 10/5 300 м
[Cu Sc Ac As]
+15.9 +14.8 93 +17 +17 по сезону 1021.3 993.0 1
06 20.08 СЗ 3
{7}
8000 м слаб. дождь 10/5 240 м
[Cu Sc As op]
+15.6 +14.8 95 +15 +15 по сезону 1021.5 993.2 +15.5 +17.9 3
07 20.08 З 1 8000 м дождь 10/5 150 м
[Cu Sc As op]
+15.6 +15.0 96 +16 +17 очень
холодно
1022.1 993.8 1
08 20.08 С 2 5000 м дождь 10/9 150 м
[Sc]
+15.7 +15.2 97 +16 +16 очень
холодно
1021.9 993.6 2
09 20.08 СЗ 4
{6}
7000 м слаб. дождь 10/9 90 м
[Sc Ac As]
+15.8 +15.3 97 +15 +15 очень
холодно
1022.7 994.4 4
10 20.08 З 2 15 км слаб. дождь 10/9 210 м
[Sc Ac As]
+15.9 +15.3 96 +16 +16 тепло 1023.4 995.1 1
11 20.08 З 2 9000 м дождь 10/9 210 м
[Sc]
+16.2 +15.6 96 +16 +17 тепло 1023.4 995.1 2

 

Местоположение метеостанции Лион (Франция): широта 45.73 долгота 5.08 высота над уровнем моря 240 м.

В архиве по умолчанию представлена погода в Лионе за последнюю неделю. Архивные данные за месяц целиком и за предыдущие месяцы, начиная с января 2011 года, Вы можете получить, выбрав интересующий диапазон дат из раскрывающегося списка и нажав кнопку "Ввод!".


*Определитесь, кто Вы:
робот инопланетянин человек

Внимание! Время в таблицах - всемирное. Для получения местного времени необходимо прибавить поправку, которая равна 1 ч.

Смотрите также архив погоды в соседних городах и на ближайших метеорологических станциях:

Погода в Лион аэропорту (Франция) (12 км)
Погода в Амберьё-ан-Бюже (Франция) (34 км)
Погода в Гренобль аэропорту (Франция) (45 км)
Погода в Ле Соваже (Франция) (59 км)
Погода в Шамбери (Франция) (62 км)
Погода в Сен-Этьене (Франция) (65 км)
Погода в Маконе (Франция) (67 км)
Погода в Гренобле (Франция) (83 км)
Погода в Анси (Франция) (83 км)
Погода в Женеве (Швейцария) (100 км)

Пояснения к столбцам:

Ветер - указаны скорость ветра в м/с - средняя за 10 мин, порывы в срок и между сроками (в фигурных скобках) и направление, откуда дует ветер: С - северный, СВ - северо-восточный, В - восточный, ЮВ - юго-восточный, Ю - южный, ЮЗ - юго-западный, З - западный, СЗ - северо-западный.
Видимость - горизонтальная дальность видимости в метрах или километрах. При видимости от 1 до 10 км при отсутствии осадков обычно наблюдается дымка, при ухудшении видимости до 1 км и менее - туман. В сухую погоду видимость может ухудшаться дымом, пылью или мглою.
Явления - указаны атмосферные явления, наблюдавшиеся в срок или в последний час перед сроком; фигурными скобками обозначены явления, наблюдавшиеся между сроками (за 1-3 часа до срока); квадратными скобками обозначены град или гололедные отложения с указанием их диаметра в мм.
Облачность - указаны через наклонную черту общая и нижняя облачность в баллах и высота нижней границы облаков в метрах; квадратными скобками обозначены формы облаков: Ci - перистые, Cs - перисто-слоистые, Cc - перисто-кучевые, Ac - высококучевые, As - высокослоистые, Sc - слоисто-кучевые, Ns - слоисто-дождевые, Cu - кучевые, Cb - кучево-дождевые. Подробнее классификацию облаков см. в Атласе облаков (PDF).
T - Температура воздуха - температура, измеренная на высоте 2 м над землей.
Td - Температура точки росы - температура, при понижении до которой содержащийся в воздухе водяной пар достигнет насыщения.
f - Относительная влажность воздуха - влажноcть воздуха, измеренная на высоте 2 м над землей.
Te - Эффективная температура - температура, которую ощущает одетый по сезону человек в тени. Характеристика душности погоды. При расчете учитывается влияние влажности воздуха и скорости ветра на теплоощущения человека.
Tes - Эффективная температура на солнце - температура, которую ощущает человек, с поправкой на солнечный нагрев. Характеристика знойности погоды. Зависит от высоты солнца над горизонтом, облачности и скорости ветра. Ночью, в пасмурную погоду, а также при ветре 12 м/с и более поправка равна нулю.
P - Атмосферное давление - приведенное к уровню моря атмосферное давление.
Po - Атмосферное давление - измеренное на уровне метеостанции атмосферное давление.
Tmin - Минимальная температура - минимум температуры воздуха на высоте 2 м над землей.
Tmax - Максимальная температура - максимум температуры воздуха на высоте 2 м над землей.
R - Количество осадков - Количество выпавших осадков за период времени, мм. При наведении курсора мыши на число - период времени, за который выпало указанное количество осадков.
R24 - Количество осадков - Количество выпавших осадков за 24 часа, мм.
S - Снежный покров - Высота снежного покрова, см. При наведении курсора мыши на число - состояние снежного покрова и степень покрытия местности в баллах.